Moose Lake, MN

8:28 PM CDT on July 21, 2017 (GMT -0500)
Moose Lake-Carlton County

Weather History for KMZH - March, 2013

Change the Weather History Date:

Sunday, March 10, 2013

  Actual Average Record
Temperature  
Mean Temperature 29 °F -  
Max Temperature 32 °F 36 °F 60 °F (2015)
Min Temperature 26 °F 11 °F -22 °F (1972)
Degree Days  
Heating Degree Days 36    
Moisture  
Dew Point 22 °F    
Average Humidity 71    
Maximum Humidity 93    
Minimum Humidity 59    
Precipitation  
Precipitation 0.00 in - - ()
Sea Level Pressure  
Sea Level Pressure 29.92 in    
Wind  
Wind Speed 6 mph (North)    
Max Wind Speed 16 mph    
Max Gust Speed 22 mph    
Visibility 9 miles    
Events      
Averages and records for this station are not official NWS values.
T = Trace of Precipitation, MM = Missing Value Source: NWS Daily Summary

Daily Weather History Graph

Daily Weather History Graph

Search for Another Location

Airport or City:

Trip Planner

Search our weather history database for the weather conditions in past years. The results will help you decide how hot, cold, wet, or windy it might be!

Date:

Astronomy

Mar. 10, 2013 Rise Set
Actual Time 7:33 AM CDT 7:10 PM CDT
Civil Twilight 7:03 AM CDT 7:40 PM CDT
Nautical Twilight 6:28 AM CDT 8:15 PM CDT
Astronomical Twilight 5:52 AM CDT 8:50 PM CDT
Moon 6:35 AM CDT (3/10) 6:18 PM CDT (3/10)
Length of Visible Light 12h 37m
Length of Day
11h 37m
Waning Crescent, 2% of the Moon is Illuminated
Mar 10
Waning Crescent
Mar 11
New
Mar 19
First Quarter
Mar 27
Full
Apr 2
Last Quarter

Hourly Weather History & Observations

Time (CDT) Temp. Windchill Dew Point Humidity Pressure Visibility Wind Dir Wind Speed Gust Speed Precip Events Conditions
12:12 AM 32.0 °F - 30.2 °F 93% 29.77 in 10.0 mi Calm Calm - N/A   Overcast
12:32 AM 32.0 °F - 28.4 °F 87% 29.77 in 10.0 mi Calm Calm - N/A   Overcast
12:52 AM 32.0 °F - 28.4 °F 87% 29.79 in 10.0 mi Calm Calm - N/A   Overcast
1:12 AM 32.0 °F - 28.4 °F 87% 29.79 in 10.0 mi Calm Calm - N/A   Overcast
1:33 AM 32.0 °F 28.7 °F 28.4 °F 87% 29.80 in 10.0 mi North 3.5 mph - N/A   Overcast
1:52 AM 32.0 °F 24.2 °F 28.4 °F 87% 29.80 in 10.0 mi NNW 9.2 mph - N/A   Overcast
3:12 AM 32.0 °F 23.0 °F 26.6 °F 80% 29.80 in 10.0 mi NNW 11.5 mph 19.6 mph N/A   Overcast
3:32 AM 32.0 °F 23.0 °F 26.6 °F 80% 29.79 in 10.0 mi North 11.5 mph 18.4 mph N/A   Overcast
3:52 AM 32.0 °F 23.0 °F 26.6 °F 80% 29.81 in 10.0 mi North 11.5 mph 18.4 mph N/A   Overcast
4:12 AM 32.0 °F - 26.6 °F 80% 29.81 in 10.0 mi Calm Calm - N/A   Overcast
4:32 AM 32.0 °F 24.2 °F 26.6 °F 80% 29.82 in 10.0 mi North 9.2 mph - N/A   Overcast
4:52 AM 32.0 °F - 26.6 °F 80% 29.83 in 10.0 mi Calm Calm - N/A   Overcast
5:12 AM 32.0 °F - 26.6 °F 80% 29.83 in 10.0 mi Calm Calm - N/A   Overcast
5:32 AM 32.0 °F 24.2 °F 26.6 °F 80% 29.83 in 10.0 mi North 9.2 mph - N/A   Overcast
5:53 AM 32.0 °F 25.6 °F 26.6 °F 80% 29.83 in 10.0 mi North 6.9 mph - N/A   Overcast
6:12 AM 32.0 °F - 26.6 °F 80% 29.84 in 10.0 mi Calm Calm - N/A   Overcast
7:32 AM 32.0 °F - 26.6 °F 80% 29.89 in 10.0 mi Calm Calm - N/A   Overcast
7:52 AM 32.0 °F 26.4 °F 26.6 °F 80% 29.89 in 10.0 mi North 5.8 mph - N/A   Overcast
8:12 AM 32.0 °F - 26.6 °F 80% 29.88 in 7.0 mi Calm Calm - N/A   Overcast
8:32 AM 32.0 °F - 26.6 °F 80% 29.92 in 7.0 mi Calm Calm - N/A   Overcast
8:52 AM 32.0 °F 25.6 °F 24.8 °F 75% 29.92 in 7.0 mi NNW 6.9 mph - N/A   Overcast
9:13 AM 32.0 °F 22.5 °F 23.0 °F 69% 29.93 in 7.0 mi North 12.7 mph 19.6 mph N/A   Overcast
9:32 AM 30.2 °F - 23.0 °F 75% 29.96 in 5.0 mi Calm Calm - N/A   Haze
9:52 AM 30.2 °F - 23.0 °F 75% 29.96 in 5.0 mi Calm Calm - N/A   Haze
10:12 AM 30.2 °F 21.3 °F 23.0 °F 75% 29.96 in 5.0 mi North 10.4 mph - N/A   Haze
10:32 AM 30.2 °F 20.8 °F 23.0 °F 75% 29.95 in 7.0 mi North 11.5 mph 16.1 mph N/A   Overcast
10:52 AM 30.2 °F 24.3 °F 23.0 °F 75% 29.96 in 7.0 mi NNW 5.8 mph - N/A   Overcast
11:12 AM 30.2 °F 21.3 °F 23.0 °F 75% 29.97 in 7.0 mi North 10.4 mph - N/A   Overcast
11:32 AM 30.2 °F 19.8 °F 23.0 °F 75% 29.97 in 7.0 mi North 13.8 mph 18.4 mph N/A   Overcast
11:52 AM 30.2 °F - 23.0 °F 75% 29.98 in 10.0 mi Calm Calm - N/A   Overcast
12:12 PM 30.2 °F 20.8 °F 21.2 °F 69% 29.98 in 10.0 mi North 11.5 mph - N/A   Overcast
12:34 PM 30.2 °F 20.8 °F 21.2 °F 69% 29.98 in 10.0 mi North 11.5 mph - N/A   Overcast
12:52 PM 30.2 °F - 21.2 °F 69% 29.97 in 10.0 mi Calm Calm - N/A   Overcast
1:13 PM 30.2 °F 21.3 °F 21.2 °F 69% 29.99 in 10.0 mi North 10.4 mph - N/A   Overcast
1:32 PM 30.2 °F 21.3 °F 21.2 °F 69% 29.98 in 10.0 mi North 10.4 mph - N/A   Overcast
1:52 PM 32.0 °F 22.5 °F 21.2 °F 64% 29.98 in 10.0 mi North 12.7 mph 16.1 mph N/A   Overcast
2:12 PM 32.0 °F 25.6 °F 21.2 °F 64% 29.96 in 10.0 mi North 6.9 mph - N/A   Overcast
2:33 PM 32.0 °F 24.8 °F 21.2 °F 64% 29.94 in 10.0 mi NNE 8.1 mph 18.4 mph N/A   Overcast
2:53 PM 32.0 °F 28.7 °F 21.2 °F 64% 29.94 in 10.0 mi North 3.5 mph 19.6 mph N/A   Overcast
3:12 PM 30.2 °F - 21.2 °F 69% 29.96 in 10.0 mi Calm Calm - N/A   Overcast
3:32 PM 30.2 °F 21.9 °F 21.2 °F 69% 29.96 in 10.0 mi NNE 9.2 mph - N/A   Overcast
3:53 PM 30.2 °F - 19.4 °F 64% 29.98 in 10.0 mi Calm Calm - N/A   Overcast
4:12 PM 30.2 °F - 19.4 °F 64% 29.98 in 10.0 mi Calm Calm - N/A   Overcast
4:33 PM 30.2 °F - 19.4 °F 64% 29.98 in 10.0 mi Calm Calm - N/A   Overcast
4:53 PM 30.2 °F - 19.4 °F 64% 29.97 in 10.0 mi Calm Calm - N/A   Overcast
5:12 PM 30.2 °F 20.2 °F 19.4 °F 64% 29.96 in 10.0 mi North 12.7 mph - N/A   Overcast
5:32 PM 30.2 °F 20.2 °F 19.4 °F 64% 29.95 in 10.0 mi North 12.7 mph - N/A   Overcast
5:52 PM 30.2 °F 20.8 °F 19.4 °F 64% 29.96 in 10.0 mi North 11.5 mph 19.6 mph N/A   Overcast
6:13 PM 30.2 °F 19.8 °F 19.4 °F 64% 29.95 in 10.0 mi North 13.8 mph 20.7 mph N/A   Overcast
6:32 PM 30.2 °F 20.8 °F 19.4 °F 64% 29.94 in 10.0 mi North 11.5 mph 17.3 mph N/A   Overcast
6:52 PM 28.4 °F 18.0 °F 19.4 °F 69% 29.94 in 10.0 mi North 12.7 mph 17.3 mph N/A   Overcast
7:12 PM 28.4 °F 18.5 °F 19.4 °F 69% 29.94 in 10.0 mi North 11.5 mph 20.7 mph N/A   Overcast
7:32 PM 28.4 °F 16.6 °F 17.6 °F 64% 29.95 in 10.0 mi NNE 16.1 mph 21.9 mph N/A   Overcast
7:53 PM 28.4 °F 17.0 °F 17.6 °F 64% 29.95 in 10.0 mi North 15.0 mph 18.4 mph N/A   Overcast
8:12 PM 28.4 °F 17.0 °F 17.6 °F 64% 29.95 in 10.0 mi North 15.0 mph 21.9 mph N/A   Overcast
8:32 PM 28.4 °F 18.0 °F 17.6 °F 64% 29.95 in 10.0 mi NNE 12.7 mph - N/A   Overcast
8:52 PM 28.4 °F 18.0 °F 17.6 °F 64% 29.96 in 10.0 mi NNE 12.7 mph 19.6 mph N/A   Overcast
9:13 PM 28.4 °F 17.5 °F 15.8 °F 59% 29.96 in 10.0 mi NNE 13.8 mph 18.4 mph N/A   Overcast
9:32 PM 28.4 °F 18.5 °F 15.8 °F 59% 29.96 in 10.0 mi NNE 11.5 mph - N/A   Overcast
9:53 PM 28.4 °F 18.5 °F 15.8 °F 59% 29.96 in 10.0 mi NNE 11.5 mph 19.6 mph N/A   Overcast
10:12 PM 26.6 °F 17.5 °F 17.6 °F 69% 29.96 in 10.0 mi NNE 9.2 mph - N/A   Overcast
10:33 PM 26.6 °F 16.8 °F 15.8 °F 64% 29.95 in 10.0 mi NNE 10.4 mph - N/A   Overcast
10:52 PM 26.6 °F 16.8 °F 15.8 °F 64% 29.95 in 10.0 mi NNE 10.4 mph - N/A   Overcast
11:12 PM 26.6 °F 15.7 °F 15.8 °F 64% 29.94 in 10.0 mi NNE 12.7 mph 17.3 mph N/A   Overcast
11:32 PM 26.6 °F 16.8 °F 15.8 °F 64% 29.93 in 10.0 mi NNE 10.4 mph - N/A   Overcast
11:53 PM 26.6 °F 17.5 °F 17.6 °F 69% 29.92 in 10.0 mi North 9.2 mph - N/A   Overcast
12:12 AM 26.6 °F 16.8 °F 15.8 °F 64% 29.91 in 10.0 mi NNE 10.4 mph - N/A   Overcast
12:33 AM 26.6 °F 17.5 °F 15.8 °F 64% 29.90 in 10.0 mi NNE 9.2 mph - N/A   Overcast
12:53 AM 26.6 °F 17.5 °F 15.8 °F 64% 29.89 in 10.0 mi NNE 9.2 mph - N/A   Overcast